Simultaneous Nadir Overpasses (SNOs) Predictions

Prediction of SNOs between GOES-17 and METOP-B Satellite Orbit:

Table of predicted SNOs for the next 14.0 days since TLE Epoch: 2/7/2020
Index Date Time (GOES-17) GOES-17 Lat,Lon METOP-B Lat,Lon Distance(km) Time Diff (sec)
1 02/08/2020 18:50:14 -0.01,-137.23 0.66,-140.19 337.73 80
2 02/09/2020 18:32:16 -0.01,-137.22 -0.48,-135.20 231.33 80
3 02/11/2020 06:48:36 0.01,-137.21 -0.59,-139.79 294.04 80
4 02/12/2020 06:30:37 0.01,-137.21 0.56,-134.80 274.71 80
5 02/13/2020 18:46:50 -0.01,-137.21 0.46,-139.36 244.98 80
6 02/14/2020 18:28:50 -0.01,-137.20 -0.63,-134.36 323.48 80
7 02/16/2020 06:45:11 0.02,-137.18 -0.38,-138.96 202.84 80
8 02/17/2020 06:27:12 0.01,-137.17 0.71,-133.96 365.11 80
9 02/18/2020 18:43:24 -0.02,-137.16 0.31,-138.52 156.04 80
10 02/19/2020 18:25:26 -0.02,-137.15 -0.83,-133.54 411.71 80
11 02/21/2020 06:41:46 0.02,-137.12 -0.22,-138.13 115.40 80




NCC Satellite Simultaneous Nadir Overpasses (SNOs) Prediction Service
